Wetbulb
55.47 55.52 55.82 56.57 57.17 58.12 59.89 60.55 60.70 60.83 60.52 61.01 61.04 60.01 59.16 58.27 57.72 57.63 57.17 57.09 56.62 57.05 56.98 57.68 58.29 58.96 55.37 49.52 48.41 55.27 60.62 60.11 59.25 59.63 55.90 54.01 49.55 46.32 42.25 43.90 45.49 44.13 45.72 48.40 50.49 51.63 51.82
54.64 54.98 55.29 55.49 55.77 56.50 57.35 58.75 60.54 60.46 60.37 60.28 61.49 60.43 59.55 58.34 57.76 57.59 57.19 57.05 56.83 56.66 57.04 57.04 57.53 57.55 50.22 40.56 51.84 52.83 52.72 53.82 55.19 55.06 54.28 54.06 51.00 49.99 46.23 44.54 43.26 45.52 46.09 46.94 49.38 49.28 49.88
53.59 53.75 53.79 54.45 54.99 55.14 55.84 57.01 58.41 59.87 60.20 59.98 60.71 60.85 59.94 59.12 57.66 57.44 57.25 57.15 57.50 57.28 56.79 56.67 56.88 54.49 48.59 44.72 51.59 51.74 52.48 50.96 51.97 54.55 51.82 53.42 53.54 49.73 49.20 45.08 47.69 46.53 42.95 44.97 45.76 47.06 47.63
53.31 53.46 53.62 53.50 54.02 54.67 55.18 56.31 57.43 58.60 59.38 59.61 60.17 60.48 59.93 59.16 58.31 57.74 57.27 57.04 57.32 56.98 57.22 57.14 56.84 51.98 42.83 52.68 52.29 51.55 51.46 49.92 51.24 52.22 51.30 52.33 54.63 51.11 49.24 49.41 46.20 43.31 40.84 36.49 42.89 46.41 47.82
52.05 52.57 52.50 52.62 53.10 53.85 54.51 54.61 56.20 56.93 57.42 59.34 59.56 59.72 59.84 59.22 58.29 57.67 57.85 57.01 56.65 56.54 56.82 56.86 51.08 47.13 41.23 53.68 49.74 51.25 51.08 48.55 48.28 48.80 49.36 52.56 50.90 46.27 45.56 43.08 40.35 39.65 33.72 35.43 39.75 46.04 46.53
51.32 51.14 51.18 51.21 51.96 52.48 53.03 53.51 54.21 55.10 56.10 57.69 58.93 58.94 58.68 58.95 58.11 57.71 57.62 56.76 55.91 55.39 55.02 54.15 52.08 44.83 46.37 44.48 48.92 50.16 50.46 50.47 46.35 46.11 45.37 45.59 45.55 41.53 41.51 39.74 31.08 34.53 33.99 34.09 35.79 42.00 44.02
50.97 50.92 50.39 50.43 50.30 51.19 52.11 52.26 53.21 54.45 54.77 56.67 57.69 58.06 58.24 58.17 57.92 57.64 54.84 49.46 43.13 41.78 48.52 42.60 43.44 43.47 44.66 48.87 50.75 48.81 49.70 47.95 46.19 42.58 36.42 39.28 37.84 35.74 37.53 37.95 39.86 36.66 36.10 36.01 39.20 42.18 39.63
50.53 50.53 50.20 50.42 50.12 49.93 51.32 51.77 52.37 52.91 54.13 55.15 56.31 57.76 57.98 58.13 57.95 57.33 50.17 44.20 42.74 44.57 38.48 45.51 45.70 45.78 47.58 49.01 43.78 46.76 49.51 43.11 41.33 37.10 37.97 35.95 32.31 37.07 38.83 37.70 36.66 35.97 35.18 35.08 38.72 41.60 41.03
49.91 50.28 49.74 50.10 49.38 49.90 50.61 51.06 51.83 52.38 53.05 54.53 55.38 57.68 57.62 57.67 57.44 54.25 49.00 47.60 49.34 47.46 37.77 41.13 44.30 43.51 44.60 46.71 43.26 43.80 46.25 43.04 38.87 36.45 36.27 33.49 34.94 39.61 37.64 35.94 35.33 34.76 32.91 33.74 33.83 37.92 39.42
49.69 49.82 49.48 49.04 48.74 49.53 49.81 50.62 51.03 51.54 52.18 53.52 54.79 56.53 56.93 57.15 52.32 51.35 47.90 49.99 49.47 48.53 29.18 33.67 39.55 43.49 45.15 46.10 41.02 48.12 47.65 43.57 39.80 35.67 38.09 37.01 40.15 36.91 35.09 33.80 35.33 31.09 37.16 37.14 35.76 33.18 27.89
49.68 49.43 49.27 48.79 48.43 48.69 49.51 49.99 51.14 50.88 51.32 52.71 54.12 55.77 56.76 56.06 49.27 47.30 48.20 49.93 49.68 42.80 12.36 35.50 38.68 48.21 47.23 41.33 43.39 42.80 47.92 45.04 37.92 36.76 35.87 34.10 34.87 34.40 33.16 34.17 36.83 33.42 38.30 36.03 36.17 33.87 31.31
49.54 49.43 49.08 48.50 48.40 48.54 49.07 49.78 50.94 50.38 51.00 52.49 52.94 54.05 55.59 51.49 50.15 49.62 50.98 50.38 46.45 25.53 14.74 33.76 39.65 39.21 40.64 41.94 42.47 43.81 43.81 46.64 44.29 38.89 38.19 34.95 39.00 37.54 35.91 37.74 37.64 38.95 35.79 35.38 34.35 32.57 25.93
49.18 49.05 48.86 48.41 48.13 48.48 49.14 49.49 50.37 49.85 51.10 51.65 52.17 53.06 53.40 51.79 46.33 50.70 51.15 45.64 29.44 18.98 34.28 33.15 34.96 37.90 37.18 37.52 38.81 40.28 39.34 38.18 35.80 31.40 30.84 36.39 35.11 37.93 39.58 34.51 37.19 35.87 31.85 25.74 24.94 24.54 23.60
49.12 48.77 48.14 48.26 48.02 48.25 48.61 48.75 49.69 50.00 51.06 51.11 51.46 51.65 51.61 51.77 51.86 51.28 48.12 37.58 20.66 28.89 30.33 37.28 36.52 36.63 33.16 36.12 36.70 37.43 37.35 34.44 38.87 34.97 32.44 28.63 27.04 34.81 37.64 35.41 33.20 33.37 31.98 25.00 19.00 20.91 21.89
49.02 48.53 47.96 48.15 48.06 48.05 48.15 48.59 49.09 49.75 50.87 50.83 51.16 49.52 48.13 51.17 52.06 50.52 41.71 29.06 26.01 29.58 35.30 35.00 36.14 32.99 33.37 36.52 36.85 36.55 36.06 34.26 36.17 36.66 30.37 26.97 26.39 36.17 37.58 38.63 37.88 33.73 30.83 34.43 28.51 30.36 27.98
48.60 48.44 48.14 47.69 47.75 47.36 47.65 48.56 49.21 50.51 50.47 50.44 47.84 45.44 46.44 52.19 52.21 47.57 37.51 29.24 30.64 37.54 38.84 37.30 31.18 35.06 30.88 33.52 33.57 34.00 33.17 35.06 35.39 37.57 38.80 33.13 26.95 33.46 36.67 37.89 37.51 34.80 36.79 29.19 29.55 21.98 21.11
48.32 48.15 48.05 47.64 47.39 46.76 47.26 48.36 49.52 49.96 50.26 50.39 45.83 40.84 48.73 52.40 50.46 42.46 32.86 29.94 34.93 40.24 41.83 37.84 35.63 34.98 33.96 33.14 33.50 31.91 32.14 34.27 37.30 36.28 39.20 35.93 28.95 27.58 33.43 32.83 31.25 33.11 31.42 32.90 31.20 28.20 20.77
48.07 47.85 47.93 47.38 46.99 46.39 47.00 48.23 49.28 49.97 50.15 48.80 44.05 34.05 50.13 50.89 39.20 39.67 34.91 36.15 40.53 39.03 41.81 40.95 40.26 38.87 36.06 34.11 31.98 30.54 30.41 33.66 38.55 37.86 34.43 36.48 33.06 25.90 28.93 35.70 38.74 36.86 32.59 32.77 27.62 20.23 26.68
47.78 47.57 47.54 46.98 46.68 46.33 46.85 48.11 49.06 49.86 50.04 44.96 41.64 42.62 49.65 48.10 33.34 34.50 38.13 37.91 39.84 39.85 40.66 40.28 39.48 40.44 40.43 35.23 30.73 32.80 33.26 38.86 39.69 37.95 35.21 36.74 33.41 25.55 29.49 33.57 35.63 33.42 33.67 34.14 33.64 32.73 26.69
47.38 47.20 47.20 46.78 46.68 46.81 47.30 47.83 48.76 49.79 49.78 47.10 42.54 35.36 42.07 43.94 43.31 36.58 34.75 36.07 36.41 42.03 40.18 42.28 41.38 41.75 38.87 36.68 36.15 33.01 33.77 38.79 39.85 39.75 42.89 40.51 34.99 30.64 25.33 30.69 34.27 30.65 34.30 34.38 32.72 27.54 28.07
46.90 46.93 46.96 46.64 46.34 45.90 46.91 47.76 48.65 49.64 49.21 47.64 43.42 38.86 39.99 34.87 37.90 37.59 38.26 38.28 35.95 36.72 41.82 42.12 39.84 39.82 38.69 35.03 35.31 33.23 36.10 37.42 40.73 42.33 40.76 38.26 31.30 32.89 33.81 34.28 34.81 34.75 35.05 34.11 32.07 32.91 29.37
46.69 46.39 46.86 46.40 46.38 45.71 46.70 47.46 48.35 49.66 49.46 46.47 42.52 41.48 41.78 38.29 40.88 37.98 38.37 36.75 38.23 38.51 40.22 39.35 38.77 39.98 40.36 37.75 35.93 31.71 36.33 36.68 36.46 40.29 38.48 39.60 32.22 33.03 31.39 34.46 33.70 31.77 34.06 36.28 35.30 35.63 35.48
46.37 46.31 46.47 46.49 46.18 45.61 46.31 48.12 48.87 49.60 48.77 42.76 44.29 47.10 43.08 39.50 39.54 37.50 37.20 37.65 38.96 41.42 42.65 42.69 41.74 40.58 39.77 41.23 42.13 41.86 41.97 42.03 41.11 38.90 37.66 35.64 33.56 32.57 28.69 36.53 35.25 29.91 33.28 35.00 37.31 38.66 38.59
46.19 46.26 46.35 46.13 46.02 45.39 45.62 47.17 48.34 49.14 49.15 46.05 45.39 43.88 41.91 36.65 38.56 38.39 40.48 40.38 39.55 40.62 39.05 42.22 43.36 41.49 43.70 47.85 46.06 43.83 43.67 43.11 42.18 40.54 40.31 35.32 33.70 34.06 29.88 33.31 28.36 36.60 42.80 41.27 39.28 39.01 39.64
46.33 46.23 46.25 45.90 45.14 45.22 45.47 46.73 47.99 48.73 49.49 46.51 47.46 46.10 44.05 38.91 39.66 40.18 40.68 40.80 41.36 41.64 41.06 40.76 42.81 44.90 47.35 44.71 40.84 37.44 37.50 38.16 37.79 36.98 38.44 38.38 35.63 32.81 32.31 29.28 33.50 36.49 40.96 39.67 37.93 36.96 41.01
46.25 46.08 45.90 45.79 44.83 45.17 45.42 46.33 47.64 48.37 49.09 47.31 46.72 49.47 45.19 41.22 39.68 43.34 41.17 40.98 39.18 38.43 39.37 41.27 44.03 45.74 46.19 42.89 39.81 33.66 30.18 30.20 30.02 31.98 35.25 36.19 36.86 34.96 32.61 27.97 26.08 32.47 39.80 42.16 43.18 34.98 43.68
46.13 45.68 45.63 45.64 44.98 45.10 45.55 45.89 47.27 47.95 48.42 47.65 46.54 49.70 45.93 39.30 43.22 42.77 40.35 38.93 41.44 38.35 36.09 39.38 41.73 42.65 44.85 39.40 36.44 34.22 32.07 33.15 29.01 29.94 33.03 33.85 34.91 31.62 32.18 31.22 30.94 37.15 37.75 39.79 33.36 33.72 38.60
45.78 45.67 45.46 45.35 45.42 44.91 45.45 45.64 46.81 47.53 47.85 47.08 46.18 48.96 47.48 42.86 43.62 44.39 44.32 41.00 40.70 40.44 37.85 41.47 40.98 41.91 41.17 37.77 36.92 36.28 32.40 33.80 30.60 30.85 32.12 32.22 31.69 30.62 30.01 29.10 24.57 38.57 37.56 34.04 36.87 36.73 37.96
45.45 45.43 45.11 45.13 45.31 44.95 45.33 45.33 46.64 47.12 47.29 47.83 45.49 50.29 49.84 45.44 43.93 46.87 46.07 46.13 46.10 46.04 43.12 43.06 41.91 42.24 43.44 40.07 38.75 39.54 35.84 32.72 33.06 28.80 33.91 32.04 35.14 32.86 33.43 32.45 38.15 38.28 37.82 38.98 39.10 38.17 36.28
MSLP
1016.91 1016.34 1015.98 1015.52 1015.02 1014.50 1013.93 1013.54 1013.42 1013.22 1013.09 1012.89 1013.00 1013.26 1013.63 1013.91 1014.06 1014.31 1014.41 1014.37 1014.31 1014.12 1014.14 1014.03 1013.81 1013.84 1013.88 1013.88 1012.96 1011.76 1011.44 1011.41 1011.42 1012.01 1012.75 1013.51 1014.00 1014.26 1014.42 1014.19 1013.73 1013.31 1012.78 1012.36 1011.87 1011.55 1011.14
1017.22 1016.65 1016.10 1015.47 1014.91 1014.45 1013.91 1013.35 1012.88 1012.70 1012.60 1012.49 1012.39 1012.71 1012.98 1013.41 1013.71 1013.94 1014.17 1014.20 1014.21 1014.07 1014.06 1014.07 1013.91 1013.94 1014.11 1013.83 1012.11 1011.91 1011.90 1011.96 1012.02 1012.27 1012.91 1013.40 1013.75 1014.09 1014.30 1014.15 1014.00 1013.24 1012.76 1012.44 1011.88 1011.54 1011.22
1017.15 1016.63 1016.08 1015.67 1015.13 1014.49 1013.75 1013.26 1012.83 1012.22 1012.11 1011.99 1011.93 1011.99 1012.45 1012.92 1013.30 1013.63 1013.86 1014.07 1014.03 1013.99 1013.98 1014.05 1014.07 1014.08 1014.13 1012.87 1011.92 1011.92 1012.13 1012.32 1012.30 1012.41 1012.86 1013.16 1013.55 1014.03 1014.02 1013.94 1013.59 1013.26 1012.95 1012.37 1011.85 1011.52 1011.00
1017.14 1016.72 1016.08 1015.43 1015.01 1014.38 1013.61 1013.16 1012.66 1011.95 1011.65 1011.51 1011.37 1011.38 1011.76 1012.34 1012.87 1013.25 1013.55 1013.78 1013.89 1013.94 1013.89 1013.96 1014.10 1014.24 1013.63 1012.15 1011.95 1012.03 1012.12 1012.35 1012.32 1012.41 1012.63 1012.80 1013.32 1013.90 1014.19 1013.71 1013.51 1013.51 1013.18 1012.53 1011.30 1011.05 1010.82
1017.22 1016.57 1015.99 1015.64 1015.10 1014.51 1013.69 1013.12 1012.52 1011.88 1011.48 1010.97 1010.84 1010.86 1011.12 1011.80 1012.37 1012.95 1013.26 1013.58 1013.77 1013.82 1013.84 1013.97 1014.27 1014.28 1013.16 1012.01 1012.06 1011.81 1012.00 1012.25 1012.40 1012.52 1012.71 1012.72 1013.19 1013.60 1013.86 1014.12 1014.02 1013.53 1013.04 1012.52 1011.77 1010.84 1010.55
1017.23 1016.68 1016.03 1015.42 1015.07 1014.46 1013.74 1012.98 1012.35 1011.64 1011.04 1010.63 1010.31 1010.37 1010.50 1010.98 1011.87 1012.47 1013.00 1013.41 1013.57 1013.78 1014.03 1014.24 1014.27 1014.67 1012.86 1011.98 1011.77 1011.79 1011.90 1012.17 1012.59 1012.75 1013.03 1013.11 1013.39 1013.72 1014.13 1014.48 1013.66 1013.73 1013.70 1012.93 1012.19 1011.22 1010.70
1017.08 1016.52 1015.88 1015.15 1014.59 1014.19 1013.51 1012.79 1012.05 1011.27 1010.74 1010.26 1009.98 1009.76 1009.92 1010.36 1011.25 1012.02 1012.99 1013.68 1014.30 1014.43 1013.99 1013.36 1013.19 1012.78 1012.04 1011.75 1011.56 1011.91 1011.88 1012.30 1012.83 1013.24 1013.67 1013.84 1013.87 1013.42 1013.89 1014.34 1014.50 1014.55 1014.27 1013.69 1012.75 1011.95 1011.47
1016.91 1016.32 1015.64 1014.99 1014.16 1013.75 1013.21 1012.49 1011.78 1010.96 1010.37 1010.01 1009.58 1009.18 1009.25 1009.88 1010.71 1011.58 1012.62 1013.04 1013.07 1013.12 1013.32 1012.94 1012.94 1012.76 1012.12 1011.93 1011.79 1011.87 1011.91 1012.53 1013.24 1013.75 1014.07 1014.52 1013.64 1013.74 1014.02 1014.36 1014.66 1014.64 1014.58 1013.87 1012.97 1012.54 1011.81
1016.81 1016.10 1015.40 1014.91 1014.23 1013.58 1012.87 1012.15 1011.49 1010.81 1010.09 1009.19 1009.08 1008.43 1008.63 1009.26 1010.36 1011.40 1012.05 1012.44 1012.55 1012.84 1013.20 1012.35 1012.04 1012.16 1011.97 1012.14 1011.78 1011.69 1011.90 1012.31 1013.09 1013.80 1014.05 1014.05 1013.46 1013.35 1014.00 1014.11 1014.46 1014.44 1014.47 1014.31 1013.74 1013.19 1012.16
1016.54 1015.78 1015.08 1014.56 1013.98 1013.32 1012.55 1011.90 1011.00 1010.32 1009.80 1008.91 1008.24 1008.06 1007.98 1008.71 1010.43 1010.86 1011.77 1012.35 1012.62 1012.87 1013.52 1012.11 1011.66 1011.02 1011.29 1011.62 1011.40 1010.93 1011.40 1011.95 1012.96 1013.40 1014.00 1013.68 1013.24 1013.58 1013.70 1013.65 1014.17 1013.94 1013.96 1013.96 1013.83 1013.72 1012.60
1016.19 1015.56 1014.83 1014.33 1013.47 1012.79 1012.20 1011.60 1010.60 1009.86 1009.39 1008.83 1007.85 1007.45 1007.30 1007.86 1008.97 1010.41 1010.49 1011.78 1012.55 1013.15 1013.44 1011.51 1011.26 1010.73 1010.78 1011.34 1010.79 1010.81 1011.07 1011.61 1012.29 1013.23 1013.93 1013.05 1013.08 1013.12 1013.05 1012.88 1013.53 1013.28 1013.37 1013.55 1013.59 1013.29 1012.69
1016.01 1015.19 1014.60 1013.92 1012.89 1012.07 1011.56 1010.85 1010.06 1009.32 1008.77 1008.04 1007.62 1007.30 1007.05 1007.16 1008.29 1009.24 1010.12 1011.33 1012.73 1013.97 1012.35 1011.23 1011.04 1010.82 1010.93 1011.11 1010.87 1011.01 1011.30 1011.69 1012.20 1012.89 1013.06 1012.87 1012.75 1012.84 1012.42 1012.27 1012.79 1012.96 1013.29 1013.31 1013.26 1013.29 1011.66
1015.60 1014.93 1014.31 1013.39 1012.42 1011.64 1011.31 1010.56 1009.75 1008.94 1007.95 1007.21 1006.89 1006.78 1006.84 1005.72 1007.47 1008.73 1009.69 1011.37 1012.99 1012.85 1011.01 1010.99 1010.71 1010.93 1010.84 1010.96 1010.99 1011.05 1011.33 1011.56 1012.01 1012.66 1012.53 1012.66 1012.45 1012.59 1012.30 1012.21 1012.23 1012.80 1013.42 1013.13 1012.65 1012.14 1010.25
1014.96 1014.40 1013.96 1013.05 1012.26 1011.24 1010.33 1009.93 1009.30 1008.38 1007.35 1006.60 1006.36 1006.50 1006.71 1005.17 1006.51 1008.14 1009.06 1010.93 1011.49 1010.23 1010.35 1010.14 1010.35 1010.86 1010.88 1010.82 1010.90 1011.02 1011.18 1011.19 1011.44 1012.11 1012.29 1012.17 1011.88 1011.76 1011.67 1011.28 1011.23 1011.68 1012.19 1012.16 1011.52 1010.80 1009.89
1014.70 1014.09 1013.38 1012.56 1011.81 1010.79 1010.01 1009.33 1008.51 1007.73 1006.48 1006.18 1005.86 1006.01 1006.96 1005.42 1005.77 1007.49 1008.34 1009.94 1009.34 1009.16 1009.11 1009.69 1010.41 1010.58 1010.70 1010.50 1010.67 1010.86 1010.66 1010.38 1010.45 1011.44 1012.04 1011.80 1011.48 1010.62 1010.41 1010.24 1011.09 1011.28 1011.10 1010.68 1011.01 1010.37 1009.74
1014.47 1013.71 1012.99 1012.17 1011.45 1010.52 1009.82 1009.07 1008.28 1007.18 1006.35 1005.98 1005.54 1005.92 1006.22 1005.30 1005.44 1007.26 1008.35 1008.42 1008.61 1008.21 1008.35 1008.79 1009.10 1009.43 1009.59 1009.96 1010.51 1010.56 1010.32 1009.73 1010.29 1010.17 1010.79 1011.21 1011.22 1010.28 1010.05 1010.45 1010.43 1010.23 1010.39 1010.90 1011.03 1010.35 1008.88
1014.04 1013.34 1012.58 1011.85 1011.00 1010.33 1009.64 1008.72 1008.10 1007.00 1006.11 1005.85 1005.37 1005.35 1005.53 1005.09 1005.85 1007.45 1007.48 1007.86 1007.89 1007.64 1007.59 1008.09 1008.38 1008.73 1009.09 1009.41 1009.66 1009.81 1009.73 1009.22 1008.92 1009.01 1010.00 1011.07 1011.31 1010.95 1010.44 1009.67 1009.36 1010.02 1010.01 1010.02 1009.94 1009.59 1008.46
1013.69 1012.93 1012.16 1011.42 1010.78 1009.92 1009.25 1008.39 1007.67 1006.79 1005.76 1004.86 1004.77 1005.44 1004.93 1005.57 1006.16 1006.79 1007.04 1007.03 1007.16 1007.13 1007.36 1007.58 1007.81 1008.03 1008.43 1008.75 1009.03 1009.51 1009.25 1008.47 1007.99 1008.61 1009.47 1009.89 1010.21 1009.99 1009.05 1008.50 1008.41 1008.62 1008.67 1009.22 1009.15 1008.65 1007.80
1013.31 1012.49 1011.86 1011.10 1010.38 1009.55 1008.91 1008.08 1006.93 1006.46 1005.99 1005.68 1004.70 1004.71 1005.06 1005.34 1005.29 1006.10 1006.62 1006.76 1006.89 1006.81 1006.89 1007.08 1007.26 1007.60 1007.79 1008.06 1008.70 1008.34 1008.11 1007.06 1007.37 1007.56 1007.94 1008.84 1009.12 1009.15 1008.41 1008.51 1008.61 1008.24 1008.17 1008.11 1008.04 1007.78 1006.78
1013.02 1012.19 1011.51 1010.76 1010.04 1009.14 1008.39 1007.84 1006.83 1005.95 1005.70 1005.34 1004.62 1004.42 1004.96 1005.51 1005.16 1005.75 1006.21 1006.50 1006.81 1006.47 1006.59 1006.58 1006.59 1006.97 1007.27 1007.25 1007.39 1007.32 1007.24 1006.40 1006.38 1006.99 1007.41 1008.32 1008.48 1007.93 1007.12 1006.67 1007.18 1007.29 1006.64 1006.82 1007.24 1007.16 1005.77
1012.73 1011.97 1011.14 1010.54 1009.71 1008.97 1008.09 1007.44 1006.26 1005.54 1004.82 1003.71 1003.67 1003.58 1003.93 1004.22 1004.78 1005.23 1005.97 1005.80 1006.15 1006.27 1006.28 1006.28 1006.50 1006.49 1006.39 1006.37 1006.42 1006.48 1006.15 1006.01 1005.93 1006.70 1007.72 1008.34 1007.57 1007.07 1006.32 1006.16 1006.34 1006.13 1005.79 1005.74 1005.52 1004.64 1004.60
1012.36 1011.76 1010.95 1010.16 1009.60 1008.71 1007.94 1007.26 1006.61 1005.49 1004.16 1003.33 1002.95 1002.49 1003.29 1004.05 1004.38 1004.83 1005.52 1005.43 1005.31 1005.56 1005.84 1005.66 1005.83 1005.65 1005.78 1005.62 1005.28 1005.27 1004.99 1005.15 1005.34 1006.32 1007.07 1007.24 1006.80 1006.42 1005.34 1005.02 1004.45 1004.88 1005.00 1004.67 1004.02 1004.15 1003.94
1012.06 1011.37 1010.69 1009.92 1009.31 1008.65 1007.87 1007.05 1006.07 1005.22 1005.12 1004.44 1003.44 1002.31 1002.25 1003.59 1004.15 1004.75 1004.42 1004.77 1004.71 1005.12 1005.24 1004.99 1005.22 1005.26 1004.83 1004.46 1004.46 1004.57 1004.65 1004.54 1004.84 1005.30 1006.19 1006.69 1006.65 1006.16 1004.19 1002.58 1002.17 1003.36 1001.93 1002.54 1002.69 1002.88 1003.36
1011.83 1011.22 1010.50 1009.82 1009.13 1008.41 1007.75 1007.16 1006.48 1005.80 1005.48 1004.86 1003.91 1003.68 1002.72 1003.41 1003.50 1003.55 1004.03 1004.51 1004.61 1004.83 1004.95 1004.58 1004.89 1004.85 1004.22 1003.89 1003.73 1004.24 1004.30 1004.21 1004.44 1004.62 1004.98 1005.65 1005.95 1005.76 1003.97 1002.51 1001.61 1000.13 999.59 1000.78 1001.68 1002.63 1002.95
1011.57 1010.92 1010.45 1009.93 1009.25 1008.58 1007.82 1007.22 1006.56 1005.96 1005.10 1004.44 1003.68 1003.18 1002.36 1002.73 1003.14 1003.48 1003.83 1004.11 1004.45 1004.73 1004.82 1004.55 1004.55 1004.20 1004.08 1004.32 1004.03 1003.92 1004.35 1004.24 1003.84 1003.81 1004.13 1004.58 1004.98 1004.75 1003.35 1002.20 1000.89 1000.31 1000.36 1000.80 1001.38 1001.73 1001.96
1011.30 1010.59 1010.23 1009.78 1009.34 1008.62 1007.87 1007.10 1006.26 1005.54 1004.70 1004.02 1002.86 1002.62 1002.69 1002.54 1002.91 1002.72 1003.42 1003.98 1004.21 1004.52 1004.62 1004.35 1004.40 1004.29 1004.47 1004.32 1004.06 1003.61 1003.99 1003.87 1004.01 1003.76 1004.03 1004.53 1004.62 1004.53 1003.21 1002.33 1001.04 1000.10 999.95 1000.13 1001.54 1001.20 1000.39
1011.04 1010.35 1009.90 1009.57 1009.13 1008.56 1007.95 1007.46 1006.49 1005.60 1004.76 1003.90 1002.95 1002.65 1002.38 1002.39 1002.53 1002.54 1002.90 1003.35 1003.75 1004.16 1004.40 1004.35 1004.41 1004.44 1004.27 1003.88 1003.90 1003.68 1003.65 1003.58 1003.79 1004.06 1003.98 1004.18 1004.14 1004.00 1003.47 1002.72 1001.10 1000.10 999.92 1000.43 1001.52 1000.57 999.87
1010.77 1010.12 1009.62 1009.04 1008.62 1008.15 1007.52 1006.96 1006.33 1005.58 1004.99 1004.41 1003.29 1002.92 1002.89 1002.58 1002.64 1002.50 1002.55 1002.96 1003.41 1003.69 1004.04 1004.21 1004.44 1003.88 1003.71 1003.29 1003.33 1003.29 1003.49 1003.57 1003.41 1003.39 1003.33 1003.41 1003.31 1003.28 1003.22 1002.44 1001.27 999.94 1000.00 1000.31 1000.40 1000.43 1000.74
1010.40 1009.91 1009.40 1008.81 1008.34 1007.84 1007.36 1006.84 1006.22 1005.73 1005.30 1004.78 1003.85 1002.96 1002.68 1002.56 1002.91 1002.73 1002.56 1002.47 1002.48 1002.76 1003.39 1003.83 1003.73 1003.35 1002.92 1002.88 1003.08 1002.80 1003.06 1003.45 1003.32 1003.37 1002.81 1002.97 1002.19 1002.23 1001.96 1001.38 1000.47 1000.04 1000.05 1000.02 1000.30 1000.94 1001.43
Wind_Speed
23 24 24 24 24 25 24 18 16 15 15 15 15 14 14 13 12 11 10 8 6 3 1 1 2 1 2 3 8 4 6 6 4 8 7 5 3 2 3 3 3 6 2 5 6 10 12
22 24 25 26 25 25 25 24 19 15 16 16 14 16 14 14 13 11 9 9 7 4 1 1 1 3 1 5 4 3 5 5 3 5 5 7 5 6 4 4 4 4 5 6 7 12 7
23 23 23 23 26 26 25 26 26 18 16 17 16 14 15 14 13 12 10 9 8 6 4 3 1 1 1 11 2 1 5 1 2 3 5 4 4 2 2 3 3 4 7 7 7 4 6
24 23 24 26 24 27 24 24 24 23 19 19 18 17 17 16 13 11 10 9 5 5 5 5 2 2 7 4 4 5 3 1 5 4 3 5 7 6 5 6 4 4 3 3 4 10 7
26 27 26 24 27 27 28 26 24 23 23 21 19 18 17 16 14 12 9 8 4 4 4 3 2 2 9 5 3 5 3 4 2 3 3 3 3 4 1 3 6 6 8 5 4 7 6
26 26 28 25 26 27 28 28 28 26 23 24 20 18 19 19 15 12 9 7 2 2 2 3 2 2 4 3 3 2 4 5 2 3 3 4 4 4 4 6 11 5 4 3 6 0 4
25 27 26 27 25 28 29 28 28 27 25 23 23 18 20 21 17 14 10 5 4 1 5 8 6 4 1 2 3 2 3 6 3 4 6 0 5 9 13 8 6 5 9 12 8 7 7
26 26 27 28 30 27 30 27 27 27 27 24 24 21 20 20 18 17 8 5 5 4 4 14 9 12 3 4 2 2 6 6 5 6 5 1 12 7 6 6 9 11 13 14 12 9 11
26 26 26 27 29 28 29 28 27 25 26 25 21 21 18 22 19 14 10 7 4 2 2 6 7 8 5 6 5 6 9 5 4 7 7 11 5 7 8 9 9 9 9 11 12 7 14
25 26 27 26 27 27 28 28 27 23 27 27 19 22 19 22 14 9 8 8 5 3 2 6 5 5 6 4 7 10 10 6 4 10 10 12 13 13 10 11 9 17 6 10 11 5 9
25 28 28 25 26 25 27 29 26 25 26 28 19 19 17 23 14 9 9 10 6 5 2 3 3 2 8 10 3 5 6 4 9 7 6 6 6 11 18 19 9 9 7 9 9 7 8
26 27 27 29 26 27 25 27 28 27 30 26 15 19 15 12 7 8 15 12 5 6 9 5 4 5 7 6 2 3 8 7 3 10 12 8 3 6 7 10 15 2 6 11 5 8 15
25 26 26 28 27 26 24 26 29 30 34 21 11 16 14 12 10 15 17 8 6 5 1 7 6 6 8 6 6 6 10 11 7 7 9 8 17 2 3 4 6 11 5 4 7 9 8
27 27 23 27 28 25 26 26 28 32 29 17 9 15 10 5 17 19 11 5 5 5 5 3 4 7 6 8 5 7 9 11 13 3 2 9 7 18 9 8 6 12 14 7 7 4 5
27 25 25 26 28 27 28 29 28 34 26 11 8 3 4 8 21 14 13 5 8 6 6 8 8 5 8 7 3 10 12 11 8 17 8 3 6 3 7 17 8 5 11 19 13 12 6
26 27 25 26 27 26 27 29 30 32 23 15 3 3 6 17 19 12 8 8 5 4 7 4 7 9 8 9 10 8 7 4 12 13 14 4 4 5 4 5 8 12 6 5 7 6 5
26 26 26 25 25 25 26 27 28 29 24 21 4 5 5 14 11 10 6 5 4 4 5 6 8 8 7 7 9 8 5 3 10 8 17 6 4 2 2 9 12 7 13 7 5 7 4
26 25 26 25 25 25 26 26 28 26 22 8 1 3 12 13 9 6 4 7 6 4 4 3 2 9 10 8 8 6 8 8 8 10 12 11 4 5 15 4 7 11 11 16 4 5 6
26 25 24 24 25 24 24 26 28 26 18 4 3 4 12 11 6 8 5 5 1 4 5 6 7 8 10 8 4 8 6 9 13 13 15 11 5 5 4 4 5 8 9 17 16 5 9
26 26 23 23 24 23 23 25 27 26 23 6 3 4 5 6 0 11 12 8 7 5 9 8 4 8 7 8 7 3 5 4 12 12 10 11 4 7 7 4 2 6 14 19 18 11 12
25 25 23 22 23 23 24 26 28 26 26 6 2 5 6 11 7 13 12 6 9 6 6 9 4 12 9 5 8 7 7 4 4 10 5 6 7 10 16 18 12 11 10 21 22 24 14
25 23 23 21 23 23 23 25 26 23 30 3 3 4 4 8 13 13 14 10 8 12 7 6 7 9 13 8 7 5 5 5 5 8 10 6 5 3 8 16 24 20 18 17 23 20 20
25 25 23 22 21 22 23 24 26 22 17 3 4 2 4 13 12 12 10 9 12 5 8 8 12 10 9 12 15 13 4 6 4 9 9 5 3 2 10 11 7 10 27 22 20 18 15
25 23 23 21 21 22 22 25 26 21 15 3 2 2 2 7 11 14 9 10 8 7 6 3 7 9 4 3 4 4 5 5 5 8 11 7 4 3 7 3 1 6 2 17 19 13 12
25 22 22 20 21 21 21 24 25 23 23 7 3 3 0 5 10 11 10 4 5 6 10 14 7 6 3 3 3 2 0 4 6 7 14 6 5 4 4 3 2 5 7 10 10 10 16
24 23 20 20 20 21 21 23 26 24 25 9 5 1 2 5 8 7 11 6 4 4 2 3 2 3 3 3 4 5 4 4 3 2 3 3 2 2 5 4 4 2 9 11 13 6 17
24 22 20 20 19 20 21 21 24 24 25 13 4 2 2 4 1 5 4 6 5 2 2 0 2 3 8 6 6 4 4 2 3 6 5 4 3 6 4 3 7 4 2 8 6 7 7
23 21 20 19 19 20 21 22 23 23 24 15 7 5 2 2 0 3 4 5 3 3 4 3 2 4 4 6 4 3 4 5 2 3 5 6 4 3 2 1 4 1 1 5 3 2 3
20 21 20 19 20 19 21 21 22 22 23 20 3 3 3 3 1 1 2 1 3 5 4 3 2 1 3 3 3 2 2 2 5 3 2 4 6 5 8 6 4 3 2 1 2 4 2
Wind_Direction
348 341 337 336 337 339 344 283 274 268 269 263 239 219 227 235 240 244 250 251 256 240 219 16 15 37 103 218 253 306 7 18 94 156 166 181 187 150 222 251 272 232 257 277 276 268 275
350 349 345 343 337 331 335 332 281 270 262 263 248 224 215 226 231 237 238 250 249 246 192 245 22 73 102 230 241 55 29 352 91 118 156 156 202 206 286 249 225 295 289 276 260 261 263
346 344 344 341 339 333 331 331 327 277 265 260 253 225 209 215 222 225 227 240 242 238 222 226 183 70 255 241 261 310 27 30 279 159 150 205 171 188 200 275 264 267 294 290 238 235 245
349 342 344 338 340 336 336 330 326 334 274 261 250 235 207 205 209 218 220 235 236 277 211 216 173 98 248 265 284 284 144 220 217 207 172 163 176 216 251 317 314 283 248 264 237 192 230
347 344 339 344 338 337 330 333 324 323 324 272 260 237 207 198 197 204 210 210 223 229 185 190 89 98 267 309 187 243 152 163 159 160 199 203 147 204 216 244 271 196 255 235 315 220 230
347 340 337 337 336 332 329 326 328 316 315 316 266 251 217 187 189 190 197 162 125 132 158 64 347 326 253 227 195 199 188 148 128 116 69 178 157 197 170 200 230 248 259 246 218 207 299
342 340 336 327 331 330 328 325 323 321 318 314 307 257 219 189 180 176 140 100 58 318 225 201 196 235 263 218 122 148 168 113 104 86 169 275 201 203 213 226 253 314 296 279 298 302 336
341 339 338 335 329 330 323 322 319 320 320 308 314 261 223 184 175 160 133 162 200 166 251 234 238 246 302 11 167 167 145 144 152 191 130 311 242 219 210 210 239 251 266 273 276 274 294
337 334 338 336 331 326 321 323 318 319 323 308 294 266 224 178 161 150 183 174 145 124 275 269 202 221 220 182 221 207 159 143 167 185 179 216 213 208 222 236 237 240 239 259 264 295 282
335 335 334 334 326 326 322 326 318 314 330 318 316 287 228 164 155 154 188 169 148 89 347 239 194 241 169 158 250 194 185 146 199 202 218 249 240 236 255 240 214 254 185 232 252 252 257
333 332 335 335 321 323 325 329 317 322 324 316 311 304 230 160 131 169 164 138 143 63 9 146 166 336 149 172 141 195 170 190 195 182 155 219 208 217 232 235 209 244 228 226 236 240 275
330 329 333 332 328 323 332 328 325 330 323 311 290 309 286 145 117 154 136 124 80 59 252 173 126 167 165 199 192 97 171 214 56 211 218 234 187 188 219 241 213 281 240 255 249 235 248
328 328 330 328 330 329 337 331 330 329 321 306 298 322 319 153 153 142 135 123 110 186 83 172 178 172 189 171 205 184 187 195 207 189 220 211 235 245 248 193 174 192 218 264 212 217 242
326 328 331 324 324 327 332 340 327 327 323 304 309 318 307 162 131 148 143 116 153 209 188 112 130 134 190 167 214 203 195 219 216 165 245 212 233 204 201 210 170 193 194 203 238 218 225
326 329 333 326 329 333 339 334 332 329 324 304 313 188 285 191 144 154 144 183 197 200 161 145 141 171 200 203 201 204 223 234 213 205 230 212 258 162 227 210 189 167 214 216 254 267 272
326 326 328 328 331 337 338 334 342 333 335 336 324 108 234 171 145 154 158 193 202 206 128 149 174 190 195 191 194 189 189 221 222 184 190 233 261 216 185 141 222 219 150 191 191 230 240
330 329 327 330 332 339 336 334 338 336 342 332 219 135 193 151 131 160 190 197 194 214 146 161 205 194 214 191 192 197 218 255 203 195 180 175 181 270 118 202 189 195 229 239 210 208 217
331 333 328 335 333 336 337 337 341 339 340 301 138 92 152 158 155 180 168 170 186 173 179 198 220 216 198 193 194 215 215 240 182 148 185 199 195 227 227 217 201 212 221 209 230 257 237
331 337 332 333 333 336 334 340 338 342 352 309 159 204 151 182 159 168 153 185 195 172 180 182 217 206 192 211 215 193 195 222 180 172 172 174 217 239 223 209 201 210 205 213 223 283 213
335 339 334 334 331 338 336 342 338 339 334 306 194 143 128 206 314 173 180 192 182 225 246 201 278 170 199 232 226 247 234 256 187 191 171 153 236 235 232 256 67 202 203 203 210 236 246
336 339 336 336 332 340 339 341 342 339 335 303 156 164 162 183 191 162 185 184 178 205 215 203 241 236 204 231 207 230 218 248 154 145 140 207 245 214 240 250 251 217 222 200 213 218 220
336 338 338 333 341 339 343 342 342 350 344 319 218 150 154 151 168 171 182 214 203 206 229 198 223 214 223 237 215 208 220 200 180 164 192 195 269 239 254 234 240 238 220 238 215 214 240
337 341 342 346 340 341 342 341 344 360 350 325 295 314 123 162 163 178 200 199 220 208 223 227 199 231 247 241 229 249 266 267 210 164 192 191 247 269 285 300 158 224 227 215 216 209 213
338 339 341 347 343 343 343 343 344 350 347 283 265 264 147 161 194 187 160 198 231 208 240 241 205 214 216 20 308 199 244 249 241 213 170 182 182 206 273 310 296 285 159 197 194 185 201
334 340 346 342 346 342 342 339 343 349 344 326 264 262 263 133 181 188 211 191 214 247 245 245 224 219 106 312 276 214 227 235 231 218 204 188 176 265 297 282 229 66 151 164 174 247 243
336 338 342 341 344 338 343 339 343 347 348 335 303 172 272 128 192 147 176 174 185 197 252 229 60 112 141 220 245 209 212 231 254 308 157 174 329 302 333 341 39 34 163 156 175 262 205
335 334 341 338 340 337 340 339 343 349 351 343 265 325 311 98 138 128 158 171 160 137 211 201 248 225 193 189 214 198 211 180 184 174 193 161 187 210 270 290 291 247 136 112 161 252 159
334 334 333 338 335 336 338 341 342 351 354 351 290 288 322 99 203 183 147 135 120 156 181 158 240 200 199 174 186 197 195 216 175 199 179 172 163 205 133 298 315 56 159 183 214 6 139
333 332 332 337 333 334 334 339 341 350 351 351 310 317 263 87 160 345 275 266 170 169 160 185 276 260 264 140 227 245 194 147 169 250 135 228 185 186 176 212 258 304 317 3 152 137 134